GFSGBSN_sfc_wetblb_000.txt.gz
Wetbulb
56.48 56.54 56.53 56.35 56.17 56.27 56.17 56.26 56.59 56.83 56.98 56.96 56.99 57.19 57.28 57.44 57.59 57.63 57.89 57.78 57.72 57.69 57.55 57.63 58.44 58.07 59.55 62.23 60.59 67.43 70.44 69.05 61.36 60.33 61.80 59.59 57.71 56.78 54.32 56.90 60.18 59.61 61.12 61.98 63.29 63.07 62.68
56.08 55.86 56.11 56.00 55.99 55.89 55.91 56.02 56.21 56.30 56.52 56.63 56.80 56.79 56.77 56.82 57.13 57.40 57.42 57.17 57.16 57.44 58.56 58.46 58.40 57.66 61.23 59.03 65.33 63.48 61.07 60.22 58.97 62.74 61.14 59.83 57.93 58.51 56.81 57.90 58.07 60.23 61.72 62.20 62.02 62.14 61.98
55.49 55.48 55.65 55.62 55.48 55.57 55.57 55.84 56.19 56.26 56.35 56.30 56.26 56.37 56.49 56.70 56.88 56.99 56.91 56.34 56.52 58.34 58.91 58.40 57.83 60.43 61.86 60.68 65.32 65.60 61.49 61.59 62.52 64.12 59.49 60.41 60.60 58.92 58.65 57.99 61.15 59.35 57.25 60.76 61.34 61.27 60.75
54.94 55.20 55.37 55.34 55.16 54.89 55.47 55.64 55.86 55.74 55.77 55.83 55.96 56.10 56.22 56.22 56.27 56.31 56.17 55.51 56.16 59.10 58.19 58.04 58.41 62.17 59.96 64.76 65.82 64.39 64.44 63.90 65.03 63.87 61.75 62.13 62.14 60.87 60.65 61.42 60.38 59.08 58.65 55.34 59.87 60.56 60.91
54.65 54.68 54.89 54.66 54.36 54.68 54.64 54.87 54.78 55.10 55.15 55.21 55.28 55.40 55.40 55.65 55.75 55.82 55.50 55.05 56.11 59.57 59.39 59.89 61.34 62.17 58.79 64.86 61.33 63.17 65.17 62.27 62.01 61.45 61.45 62.82 63.30 60.59 60.51 57.33 55.89 57.17 53.40 54.51 54.34 59.93 59.12
54.28 54.23 54.33 54.40 54.33 54.30 54.39 54.52 54.48 54.30 54.70 54.85 55.22 55.26 55.19 55.09 55.27 54.97 54.20 55.92 57.48 59.46 60.69 64.05 63.86 60.13 62.44 60.13 61.74 62.37 64.27 63.61 60.47 59.01 58.35 59.03 58.75 57.42 57.15 55.90 51.39 52.65 53.49 54.73 52.11 56.62 58.41
54.07 53.76 54.01 53.84 54.15 54.21 54.08 54.06 54.05 54.21 54.26 54.35 54.48 54.71 54.77 54.58 54.46 54.28 55.76 60.81 60.83 61.37 61.82 59.27 59.60 55.92 59.55 63.52 63.83 62.23 62.39 61.26 60.52 57.80 53.40 56.10 53.47 52.03 54.60 57.06 56.86 56.22 55.41 54.39 55.03 58.34 57.22
53.72 53.71 53.87 53.76 54.06 53.66 53.89 53.86 53.90 54.14 54.08 54.01 54.05 54.26 54.28 54.18 53.73 53.70 55.28 59.36 57.04 57.01 52.67 57.43 57.58 57.66 59.06 62.96 59.59 60.31 62.11 57.09 57.01 53.99 55.05 53.50 50.38 54.81 56.81 56.48 55.30 55.68 54.05 54.07 56.73 58.48 57.49
53.35 53.74 53.61 53.64 53.37 53.39 53.57 53.54 53.52 53.65 53.62 53.52 53.54 53.77 53.61 53.37 52.90 57.80 59.31 58.10 60.01 59.63 53.18 54.62 57.22 56.31 56.70 58.25 57.77 58.83 59.85 57.94 56.17 54.67 54.63 52.04 53.56 55.74 53.69 53.22 52.58 53.18 53.10 53.83 53.92 56.21 58.13
53.68 53.86 53.53 53.27 53.20 53.02 52.99 52.95 53.01 53.19 53.23 53.34 53.40 53.42 52.90 51.26 54.61 59.27 56.90 60.91 59.90 60.39 49.40 51.32 53.99 55.48 56.98 56.96 53.43 58.97 61.17 58.66 56.74 54.46 55.46 54.97 56.68 54.40 52.35 51.36 52.39 49.78 55.30 54.62 53.72 52.88 49.82
53.70 53.13 52.75 52.59 52.36 53.05 52.97 52.53 52.76 52.96 53.15 52.95 53.07 52.93 52.19 50.89 55.09 56.26 59.04 60.73 59.59 58.51 41.53 53.21 53.97 59.01 56.89 53.59 55.17 55.02 62.17 58.99 55.07 55.58 55.35 53.68 54.13 52.70 51.62 52.04 53.11 50.72 55.53 54.80 54.42 52.67 52.11
53.21 52.87 52.32 51.93 52.04 52.26 52.96 52.49 52.71 52.70 52.72 52.62 52.47 52.29 51.17 57.01 57.32 59.61 59.87 59.02 57.89 48.00 41.53 51.02 54.19 53.07 52.87 53.34 53.75 55.62 57.82 60.65 59.82 56.44 56.46 54.98 57.49 55.06 53.71 54.74 54.68 54.82 53.44 54.30 54.07 51.19 46.35
52.89 52.85 52.29 51.93 51.60 52.38 52.71 52.47 52.38 52.34 52.39 52.28 51.89 51.14 50.71 56.64 55.81 59.49 59.34 55.54 46.57 43.08 51.94 49.49 51.01 52.64 51.90 51.54 52.00 53.00 52.23 54.01 52.69 50.67 50.80 54.74 53.89 55.61 55.97 52.85 55.11 53.73 51.72 46.73 45.62 45.55 45.27
52.79 52.31 51.99 51.55 51.59 52.24 52.68 52.57 52.42 52.15 52.13 51.78 50.63 50.48 54.20 56.37 57.76 59.21 56.97 50.27 42.82 48.91 48.95 52.80 51.77 52.11 50.29 51.97 52.39 52.02 51.78 51.35 55.11 54.50 52.32 50.50 49.15 53.52 55.97 53.12 51.88 52.63 52.16 47.58 43.63 44.55 47.28
52.00 51.95 52.01 51.57 51.71 52.28 52.60 52.47 52.05 51.61 51.34 50.72 49.51 57.33 57.10 58.16 58.92 58.42 52.51 44.31 45.55 49.41 52.37 50.60 51.10 48.61 49.06 50.80 51.73 51.78 51.68 51.60 54.46 55.31 52.34 50.75 50.81 56.81 56.09 56.14 54.33 52.26 49.98 53.99 49.87 50.58 48.59
52.04 52.06 52.30 52.38 52.16 52.22 52.74 52.53 52.03 51.45 50.75 49.89 51.92 54.78 56.06 59.89 60.08 55.77 49.17 44.19 48.37 51.47 52.64 51.16 47.26 49.18 46.93 49.29 50.00 50.67 51.87 54.29 53.89 56.23 57.17 54.56 50.13 54.68 55.52 57.07 56.17 53.31 55.20 49.52 49.40 44.37 43.92
51.28 51.45 51.63 52.80 52.30 52.43 52.61 52.47 51.66 51.03 50.06 49.51 54.18 53.84 57.47 59.69 58.52 52.21 44.90 46.51 49.12 51.93 52.42 49.37 48.70 48.32 49.15 48.67 51.06 50.31 50.70 54.17 55.15 55.24 56.76 55.42 53.29 52.38 54.83 52.92 51.66 52.11 50.33 52.35 52.46 50.84 46.12
50.82 51.02 51.82 52.40 52.53 52.47 52.70 52.01 50.93 50.28 49.07 52.07 53.51 49.15 59.23 59.67 49.22 49.66 47.02 49.05 49.84 50.79 52.67 50.66 50.47 49.54 49.04 50.17 50.20 51.09 50.58 52.88 56.66 55.89 53.62 55.55 53.05 49.77 52.05 55.13 55.99 54.69 53.16 53.13 49.41 50.50 51.33
50.43 50.70 51.15 51.99 52.41 52.51 52.32 51.80 50.79 49.67 49.18 49.16 51.16 52.52 59.64 58.22 46.18 46.59 49.36 49.02 50.65 49.91 50.75 50.03 48.89 50.15 51.45 50.07 48.93 51.62 52.75 55.35 56.44 55.23 54.72 55.91 52.30 47.93 50.24 53.60 55.18 52.83 53.45 54.19 55.32 56.00 51.90
50.26 50.41 50.96 51.29 51.86 52.28 52.28 51.63 50.89 50.03 49.15 49.84 51.85 47.86 52.62 54.55 53.36 49.49 49.33 49.63 48.82 51.74 50.76 51.64 50.34 51.05 49.61 49.49 51.76 50.57 52.41 54.58 56.29 56.04 63.68 61.12 55.62 52.19 47.73 51.36 54.27 52.01 52.86 53.31 53.96 50.77 50.48
49.74 50.13 50.96 51.08 51.48 51.84 51.92 51.36 50.89 50.11 49.22 50.63 52.88 50.17 53.36 48.31 49.28 49.88 50.24 50.87 50.43 48.65 51.64 51.91 50.07 49.68 49.66 48.51 49.31 49.58 52.49 55.28 54.90 60.17 58.16 57.80 55.27 54.78 53.25 54.61 54.95 54.56 53.84 53.00 51.17 53.03 49.95
50.04 50.11 49.77 50.15 51.11 51.69 51.40 51.11 50.84 49.82 48.30 52.32 50.06 49.76 52.31 50.73 52.40 51.69 49.58 48.48 50.05 51.83 50.91 49.72 48.40 50.37 51.02 50.76 51.28 50.42 52.21 53.80 53.82 56.37 56.74 58.45 54.69 55.56 52.83 54.63 54.30 53.06 54.55 53.79 52.45 52.28 52.82
50.05 49.49 49.55 50.22 50.92 50.92 50.38 50.58 50.59 49.38 48.40 51.74 52.95 53.55 50.83 47.90 49.47 49.19 50.27 51.33 50.03 52.36 53.65 52.47 52.81 51.03 50.06 52.38 54.30 55.35 55.61 58.55 57.92 56.28 57.04 57.11 55.77 55.39 50.30 53.64 53.12 50.79 53.35 54.66 53.87 54.53 54.11
49.57 49.38 49.81 49.44 49.74 49.62 49.51 49.45 50.28 49.48 48.34 49.39 51.86 49.68 47.75 44.80 47.73 48.18 50.70 51.42 51.55 52.72 51.54 53.73 53.58 53.34 55.65 59.51 59.49 57.75 56.92 57.57 58.78 58.89 59.66 58.47 58.65 55.46 51.16 53.68 45.46 54.46 59.30 57.92 57.15 55.97 56.36
49.28 49.22 48.86 48.84 48.90 48.77 48.62 48.83 49.51 49.78 49.22 48.63 51.34 48.73 48.33 45.22 48.23 49.91 51.06 49.22 54.42 54.88 52.47 53.39 54.49 56.74 59.14 56.93 53.03 51.53 51.09 52.73 54.39 56.64 57.99 59.02 58.11 52.94 49.70 49.36 52.10 55.52 56.85 54.85 56.71 54.83 58.67
47.98 48.32 48.24 48.01 48.06 48.14 48.38 48.59 48.84 49.41 48.91 47.95 51.48 50.36 48.31 46.19 46.16 51.11 49.53 51.09 50.97 50.59 52.82 53.31 56.83 58.93 57.11 53.56 51.53 47.31 46.11 49.41 48.43 51.53 57.11 57.37 61.55 53.70 52.02 47.54 45.08 54.58 59.52 62.02 60.92 52.31 63.41
47.22 47.26 47.42 47.04 47.58 47.88 48.19 48.65 48.56 48.41 48.53 47.09 49.29 51.63 47.62 44.85 49.99 50.55 47.20 47.60 52.21 50.82 51.58 54.64 54.97 54.63 56.49 50.70 48.05 47.29 46.98 52.79 48.09 48.23 50.83 52.48 53.91 51.00 49.65 48.79 52.08 59.53 61.48 62.09 50.99 55.34 63.87
46.54 46.76 46.97 47.08 47.63 47.93 47.92 48.17 48.01 48.25 48.21 47.01 48.42 51.68 47.06 44.73 47.68 50.23 51.42 49.52 51.02 50.76 48.04 53.01 53.91 54.58 53.28 48.20 47.92 48.08 48.46 51.01 52.50 54.23 54.03 52.08 51.67 50.10 51.68 49.32 46.64 60.89 59.56 54.74 62.31 64.82 65.56
46.47 47.10 47.47 47.54 46.92 46.91 47.54 48.06 47.99 47.79 47.82 47.26 46.73 50.73 50.35 44.34 46.57 50.44 51.21 52.24 51.07 53.23 51.65 53.68 50.60 53.42 54.68 51.35 52.00 53.11 50.96 52.71 52.39 48.56 56.63 50.51 54.69 53.42 55.19 54.61 62.53 65.40 64.34 66.16 65.99 64.75 65.63

GFSGBSN_sfc_wetblb_003.txt.gz
Wetbulb
56.09 56.10 56.16 55.98 55.82 55.95 56.34 56.49 56.80 57.14 57.12 57.19 57.09 57.17 57.32 57.59 57.75 57.92 58.06 57.90 57.30 57.62 57.81 58.29 57.90 58.42 57.13 57.85 60.54 67.65 70.92 69.78 62.84 58.70 56.89 60.10 56.85 53.88 50.30 52.07 53.90 54.65 57.97 60.32 63.06 61.15 60.35
55.68 55.72 55.72 55.69 55.38 55.79 56.33 56.60 56.77 56.58 56.57 56.59 56.62 56.72 57.00 57.16 57.35 57.30 57.32 57.17 56.78 56.97 58.34 58.72 58.41 57.88 57.33 56.90 63.53 65.50 61.74 58.58 56.71 56.09 58.50 59.53 55.97 55.95 52.96 52.86 52.74 57.18 57.36 57.56 60.49 60.29 60.82
55.21 55.26 55.40 55.07 55.13 55.40 55.65 55.86 56.04 56.05 56.10 56.18 56.25 56.37 56.41 56.53 56.78 56.95 56.91 56.62 56.27 56.75 58.59 58.59 57.97 58.80 59.09 59.35 61.93 60.96 56.42 56.00 56.24 57.60 58.88 59.13 58.22 54.53 54.97 54.01 57.06 57.88 54.65 55.72 57.77 59.31 58.60
54.77 54.75 54.73 54.92 54.89 54.92 55.14 55.47 55.46 55.55 55.61 55.74 55.72 55.98 55.98 55.98 56.16 56.23 56.28 55.91 55.98 56.62 58.83 58.05 58.44 58.59 56.04 64.42 62.84 61.13 57.48 58.40 58.77 61.18 61.41 59.30 58.89 56.26 55.46 58.50 58.01 54.22 53.62 49.14 57.68 59.18 60.34
54.37 54.45 54.37 54.60 54.84 54.86 54.83 54.93 55.08 55.14 55.23 55.15 55.08 55.20 55.40 55.59 55.69 55.87 55.40 55.12 56.04 56.83 59.55 59.32 58.02 57.10 56.68 64.36 60.08 61.44 60.89 59.97 60.65 60.23 58.34 60.90 58.71 56.10 57.50 53.02 49.30 51.12 46.66 51.60 54.28 59.21 58.62
54.19 53.98 54.28 54.54 54.50 54.33 54.68 54.75 54.72 54.84 54.88 55.18 55.14 55.18 55.20 55.11 55.24 55.21 54.34 56.49 57.67 58.03 59.40 61.92 62.00 55.84 60.41 59.26 60.13 60.94 61.13 62.32 58.75 57.00 56.12 57.36 54.43 51.58 51.35 48.15 43.17 48.12 50.68 53.31 52.01 57.70 56.83
53.92 54.04 54.08 54.21 53.85 54.03 54.30 54.34 54.31 54.45 54.43 54.67 54.85 54.91 54.79 54.75 54.67 54.26 52.78 54.03 54.66 57.48 56.86 57.50 56.98 55.84 57.64 61.96 61.99 59.92 59.71 60.40 58.43 54.89 48.96 53.25 47.92 45.67 49.69 51.75 52.88 52.16 50.99 53.51 55.44 58.99 55.55
53.80 53.68 53.60 53.62 53.41 53.56 53.88 53.84 53.83 53.92 53.96 53.93 54.08 54.26 54.24 54.12 53.65 53.67 51.90 53.40 52.93 52.83 47.91 54.62 55.36 56.14 58.73 60.64 58.04 59.12 60.07 55.41 54.70 49.96 52.00 48.85 45.13 51.06 54.33 54.21 52.63 50.91 48.70 48.75 53.13 57.67 55.27
53.85 53.69 53.15 53.15 53.42 53.47 53.45 53.40 53.42 53.58 53.52 53.54 53.69 53.89 53.57 53.01 52.78 54.28 55.30 55.80 56.74 55.02 47.71 52.33 54.59 53.97 55.02 55.54 57.36 57.75 57.71 55.58 53.06 50.91 51.12 47.06 49.81 53.93 52.34 50.49 49.23 47.71 46.46 48.03 49.39 52.64 53.62
53.57 53.18 52.97 52.64 52.92 53.30 53.63 53.54 53.38 53.54 53.56 53.54 53.67 53.61 52.78 50.98 51.72 53.67 54.60 57.81 56.39 55.95 43.40 49.10 50.75 53.44 54.95 54.37 51.68 59.98 59.09 55.70 53.10 50.82 52.24 50.96 54.26 53.27 51.76 49.70 49.00 42.94 50.55 50.32 50.99 47.90 43.26
53.79 53.22 52.81 52.63 52.17 52.97 53.13 53.32 53.38 53.44 53.19 53.26 53.17 53.06 52.33 50.51 49.98 51.89 55.64 56.51 55.45 53.21 36.57 53.13 51.59 57.16 54.08 51.97 52.72 53.58 59.52 55.55 51.39 52.05 52.21 50.35 52.93 51.87 50.92 50.52 50.81 46.78 50.70 49.40 51.97 47.28 44.99
53.24 52.75 52.56 52.23 52.16 52.35 52.97 53.21 53.09 52.92 52.90 52.78 52.64 52.40 51.23 52.36 51.38 55.42 58.42 57.22 53.12 42.67 37.43 49.79 51.90 50.22 49.34 50.68 52.15 53.81 55.69 57.04 56.63 53.13 53.32 53.40 56.16 53.82 51.40 52.86 52.14 53.08 50.04 49.30 48.65 45.07 38.26
52.53 52.44 52.46 51.97 51.68 52.15 53.05 53.01 52.94 52.65 52.38 52.05 51.48 50.82 48.96 52.36 50.40 53.95 54.07 52.00 40.33 37.94 50.51 46.98 47.91 49.96 48.79 48.25 49.30 50.48 52.53 51.76 49.14 44.96 46.19 51.71 51.96 54.22 54.51 50.29 51.76 50.12 46.18 38.06 37.67 38.24 37.64
52.58 52.54 52.87 52.94 52.78 52.84 52.89 52.97 52.63 51.97 51.61 51.10 50.14 50.21 51.30 52.40 52.72 54.05 53.02 44.74 36.56 46.38 45.54 50.15 49.54 50.02 47.71 49.36 49.30 49.67 48.59 49.28 52.60 50.79 47.02 45.09 44.19 52.31 53.66 50.51 47.92 47.98 45.43 39.57 34.57 37.13 41.66
51.94 51.89 52.01 52.78 52.80 52.84 52.84 52.88 52.12 51.34 50.97 50.20 49.50 52.36 53.47 54.34 54.48 53.19 48.18 38.70 40.94 46.20 50.15 48.94 48.85 46.57 46.45 49.02 48.97 48.92 47.39 47.07 49.10 51.29 45.31 44.99 47.52 55.74 55.06 53.60 51.16 46.90 44.13 48.36 41.84 41.86 39.97
51.41 51.51 51.63 52.36 52.78 52.84 52.93 52.61 51.99 51.28 50.61 49.65 47.25 50.07 51.69 57.13 56.89 51.77 44.63 40.85 44.82 49.05 49.31 49.10 44.83 47.44 44.49 46.73 45.27 45.16 47.42 50.14 50.28 52.69 53.46 49.04 44.75 52.18 55.01 53.93 52.67 48.46 50.20 42.02 41.96 35.89 34.60
51.09 51.22 51.47 52.39 52.55 52.86 52.70 52.12 51.58 50.85 49.74 49.51 49.38 49.98 56.53 57.64 55.73 47.44 39.96 42.55 46.56 49.64 50.00 47.92 46.24 45.67 46.36 46.40 46.47 45.57 47.36 51.03 53.28 52.84 53.77 51.42 46.94 48.72 52.15 49.36 48.81 48.13 45.13 44.35 44.29 42.54 36.93
50.90 50.85 52.05 51.99 52.07 52.30 52.45 51.70 50.96 50.20 49.00 49.08 49.52 45.61 55.92 57.23 45.95 45.88 42.58 46.17 47.01 48.09 50.06 48.79 49.29 47.33 45.72 46.72 45.49 46.60 47.74 50.20 53.50 54.06 49.86 51.67 48.42 44.16 47.59 52.70 53.71 50.00 47.90 46.11 41.03 41.28 44.04
50.30 50.43 51.59 51.95 51.82 52.10 52.25 51.37 50.60 49.73 48.93 45.19 45.11 49.60 57.00 55.32 42.70 43.57 46.07 46.41 47.94 47.55 48.16 47.93 47.90 49.11 48.28 45.61 43.59 49.12 50.72 53.99 54.39 53.45 51.01 53.34 44.74 40.59 43.73 48.48 50.83 48.28 49.46 48.66 48.15 46.95 41.94
50.09 50.77 50.32 51.13 51.59 52.01 51.91 51.32 50.61 50.06 49.03 46.49 46.32 46.01 50.55 53.02 51.10 47.39 45.84 46.21 46.19 50.11 48.43 49.47 48.51 49.34 47.10 44.95 46.89 47.11 48.65 53.17 54.17 56.33 61.83 56.28 49.10 44.02 41.43 46.39 50.47 49.63 51.12 49.84 46.45 42.03 42.16
50.26 50.56 49.81 50.52 51.78 52.08 51.57 50.94 50.61 50.16 49.01 47.44 48.96 48.17 49.60 45.32 47.27 48.55 48.62 46.84 45.57 46.56 51.51 49.85 47.99 48.41 46.44 42.60 44.40 45.77 48.97 49.46 52.32 58.39 52.45 51.76 46.12 47.97 50.81 52.69 52.23 52.60 51.62 52.42 48.01 46.91 44.86
50.00 50.02 49.94 50.24 50.79 51.04 50.81 50.54 50.50 49.70 48.54 48.63 46.55 45.34 47.67 46.18 48.80 47.98 47.45 47.78 47.78 47.56 49.45 49.00 46.98 48.48 48.07 44.57 47.30 45.98 48.04 47.51 49.32 53.03 48.35 51.28 47.39 49.08 49.15 53.83 53.57 52.21 53.59 54.07 53.45 51.12 48.33
49.94 49.90 49.81 49.58 49.49 49.51 49.64 50.13 50.20 49.23 47.94 47.32 49.14 49.36 46.55 44.92 45.66 44.71 46.26 47.85 48.60 50.03 49.49 51.58 51.24 48.25 46.79 48.27 53.57 52.75 51.54 51.43 51.75 53.32 51.06 50.82 48.07 47.92 43.54 51.80 52.02 46.86 52.71 54.29 53.62 53.79 50.56
48.46 49.37 48.98 48.93 48.76 48.69 48.89 49.60 49.86 49.23 48.23 44.91 48.04 46.36 44.20 41.41 44.37 44.85 48.08 49.88 49.59 50.92 50.05 52.80 52.13 50.34 53.70 56.84 56.02 54.73 52.20 51.59 53.95 53.78 54.31 52.84 53.16 48.12 44.38 48.22 40.51 50.06 55.68 56.24 55.16 57.25 57.02
47.80 48.20 48.42 48.32 48.06 48.19 48.47 48.99 49.06 49.05 48.94 44.50 47.76 45.96 44.02 40.85 44.52 45.90 47.58 47.14 50.19 51.27 51.27 52.58 54.33 55.65 55.43 53.48 48.34 46.84 46.66 47.13 50.80 53.10 52.58 54.64 52.40 47.45 44.91 43.91 49.05 51.95 55.48 53.52 53.51 55.27 58.97
47.26 47.31 47.39 47.49 47.36 47.88 47.95 48.52 48.14 48.83 48.57 45.46 46.99 49.82 44.92 41.47 43.09 46.10 45.86 48.46 46.15 46.30 49.18 52.89 55.95 56.18 54.09 49.29 46.60 40.97 40.96 45.08 45.44 48.36 52.03 51.48 52.93 49.52 46.00 41.42 41.04 49.41 56.49 59.58 57.83 49.59 60.87
46.59 46.98 47.15 47.14 47.67 48.35 47.97 48.37 47.98 48.08 48.08 45.67 45.41 50.15 44.57 40.96 45.52 46.30 45.46 43.69 47.87 47.43 47.31 51.06 51.84 53.18 53.01 46.09 42.75 41.87 42.18 47.89 44.21 44.11 44.28 46.00 46.37 46.45 45.75 43.95 47.84 54.90 58.25 60.04 47.68 50.71 61.41
46.43 47.02 47.68 47.67 47.30 47.10 47.22 47.64 47.69 47.62 47.55 45.12 43.82 49.75 44.21 39.97 42.04 45.78 47.15 45.53 46.01 47.61 46.27 49.73 50.25 49.99 50.16 44.48 43.63 43.65 42.92 45.41 45.93 48.63 48.06 45.47 43.06 42.72 45.31 42.79 40.87 63.00 60.69 55.08 58.87 61.81 61.75
46.61 46.44 46.44 46.60 46.91 47.02 47.43 47.23 47.31 46.98 46.71 46.24 42.35 46.92 46.84 40.53 41.00 46.08 46.49 47.93 48.03 48.60 44.95 51.11 49.08 49.09 52.42 48.82 47.94 48.04 45.72 48.89 48.88 44.33 54.65 47.85 50.88 49.39 49.27 49.68 57.80 60.11 61.15 62.92 63.84 61.27 61.24

GFSGBSN_sfc_wetblb_006.txt.gz
Wetbulb
55.90 55.92 55.82 55.62 55.70 55.76 56.27 56.55 56.66 56.59 56.69 56.73 56.94 57.08 57.35 57.35 57.62 57.79 57.81 57.81 57.56 57.27 57.48 58.71 58.63 58.84 56.46 55.56 58.56 66.98 71.38 70.78 61.67 57.28 54.39 54.43 56.20 53.69 48.86 49.99 51.73 50.25 52.92 56.29 59.23 61.17 60.43
55.24 55.49 55.38 55.24 55.11 55.43 55.84 56.14 56.12 56.23 56.44 56.46 56.49 56.55 56.67 56.84 57.12 57.14 57.33 57.27 57.26 56.92 57.21 58.49 58.86 57.96 56.74 53.90 64.38 67.03 61.80 59.26 55.99 55.48 55.39 57.32 56.14 54.79 51.68 50.83 50.18 52.76 54.74 56.12 57.53 58.87 60.24
54.91 55.02 55.02 55.24 55.16 55.22 55.63 55.86 56.06 56.04 56.17 56.05 55.96 56.04 56.25 56.39 56.64 56.79 57.15 56.88 56.70 56.62 57.02 58.31 58.40 58.27 57.33 53.26 62.06 62.87 55.66 53.74 54.44 54.46 56.04 58.55 58.44 53.14 52.75 51.93 56.56 56.46 52.58 54.52 56.74 58.02 57.29
54.49 54.61 54.55 54.99 54.81 55.15 55.47 55.66 55.90 55.77 55.78 55.70 55.59 55.69 55.81 55.92 56.10 56.17 56.26 56.17 56.05 56.69 56.87 58.08 58.25 57.28 50.89 62.98 59.29 58.00 54.03 55.09 55.17 53.82 57.60 60.34 59.49 53.52 52.53 56.18 55.98 53.22 50.96 48.32 55.78 57.43 58.71
54.27 54.43 54.30 54.57 54.07 54.95 55.16 55.18 55.15 55.27 55.27 55.18 55.12 55.28 55.32 55.64 55.72 55.84 55.38 55.34 57.14 57.11 57.76 58.69 56.28 55.89 55.10 63.60 58.31 57.49 56.02 57.08 56.13 55.22 57.37 60.82 56.23 52.82 54.95 50.66 46.48 47.51 44.74 50.10 52.59 57.57 57.40
54.20 54.13 54.10 54.09 54.04 54.30 54.40 54.47 54.60 54.72 54.80 55.20 55.22 55.15 55.07 55.17 55.19 55.09 54.52 55.94 57.88 57.37 58.54 60.62 60.77 52.45 55.60 58.71 58.57 58.69 58.40 59.35 57.53 55.94 54.67 54.87 51.90 49.14 48.08 46.01 41.00 45.39 48.05 50.72 50.96 55.15 55.81
54.05 53.71 53.66 53.72 53.74 53.95 53.94 53.78 53.90 54.16 54.49 54.79 54.79 54.75 54.66 54.71 54.44 54.19 51.38 49.46 49.21 50.11 55.63 55.02 52.26 54.45 56.56 60.99 60.52 57.94 59.70 58.50 57.26 52.94 46.74 50.53 46.71 43.64 46.63 48.97 50.85 50.09 48.30 50.37 53.19 56.35 54.34
53.23 53.23 53.49 53.43 53.28 53.63 53.49 53.54 53.77 54.01 54.01 54.14 54.30 54.40 54.44 54.11 53.44 53.35 49.56 50.48 49.76 50.46 45.57 52.50 54.45 54.96 58.04 58.05 54.71 57.15 57.93 54.03 53.27 48.43 49.86 46.68 44.03 49.65 52.10 51.90 50.90 49.71 46.85 46.71 52.01 56.54 53.87
53.51 53.24 53.05 53.10 52.93 53.11 53.30 53.50 53.83 53.72 53.58 53.74 53.99 53.87 53.68 53.15 52.35 52.01 50.59 51.93 55.06 51.27 44.29 49.62 51.94 51.46 51.79 53.85 52.81 55.82 55.34 54.55 52.16 49.62 48.93 45.14 48.23 52.72 51.06 49.29 47.90 45.20 43.43 45.30 45.76 50.38 53.79
53.49 53.02 52.85 52.64 52.62 52.84 52.90 53.07 53.15 53.38 53.54 53.23 53.33 53.23 52.85 51.59 49.61 48.70 50.52 54.00 53.65 52.13 39.91 46.23 48.32 51.41 52.47 53.22 50.21 60.64 57.51 55.02 51.45 49.17 50.07 48.37 52.64 51.67 50.57 48.69 47.72 40.92 48.45 48.32 47.45 45.93 41.07
52.99 52.85 52.77 52.39 52.41 52.88 53.23 53.42 53.62 53.17 52.82 52.69 52.61 52.57 52.25 51.41 44.76 48.42 52.69 52.73 53.38 49.95 32.65 50.74 48.81 54.49 51.59 50.18 51.32 53.12 58.82 53.37 49.40 50.10 49.36 48.11 50.78 49.82 49.71 50.52 50.22 45.78 49.07 47.35 48.51 44.83 41.84
52.96 53.12 53.20 52.72 52.47 52.59 53.37 53.35 53.13 52.61 52.32 52.17 51.91 51.76 51.44 48.79 45.77 50.16 51.78 49.71 49.32 40.35 34.05 48.19 49.76 48.60 47.71 48.81 50.66 52.27 54.28 54.57 54.11 50.58 50.46 49.98 54.33 52.49 51.10 53.20 51.89 51.73 48.76 46.09 44.86 41.11 37.22
52.38 52.23 52.41 52.44 52.36 52.55 53.23 53.05 52.71 52.30 51.97 51.57 50.97 50.58 49.29 49.62 43.62 48.40 48.58 46.91 37.59 34.50 47.04 45.10 44.64 45.84 45.27 45.81 47.77 48.97 50.50 48.68 46.61 42.47 42.50 48.30 50.30 52.92 54.13 49.16 49.86 48.09 41.22 35.85 35.76 35.93 36.31
51.81 52.18 51.91 52.30 52.46 53.15 53.13 52.88 52.30 51.74 51.36 50.86 49.99 50.19 48.67 49.16 47.09 48.20 47.58 41.43 32.25 42.77 42.57 47.45 46.89 46.15 44.14 46.32 46.30 47.60 48.58 46.54 49.48 47.96 43.90 42.61 42.29 50.15 53.35 49.34 46.38 44.45 42.25 37.13 32.84 34.38 38.57
51.45 51.51 51.69 51.99 52.67 52.82 52.95 52.49 51.84 51.34 50.82 50.13 49.52 45.69 46.35 48.86 50.47 47.92 43.64 34.82 36.40 42.02 47.65 46.09 45.57 43.05 42.88 46.88 46.85 46.04 45.89 48.32 50.50 49.60 44.24 42.01 44.15 53.18 53.63 52.37 49.91 45.48 42.17 45.01 39.44 37.30 36.92
51.19 51.57 51.90 51.42 52.16 52.35 52.57 52.26 51.66 51.12 50.55 49.56 43.59 43.85 45.09 52.15 50.45 46.64 40.41 37.62 41.57 46.62 46.76 45.55 41.61 43.78 40.81 43.49 42.58 42.74 43.76 47.50 50.29 53.27 49.56 45.91 41.66 49.90 52.43 52.82 50.42 47.76 47.83 40.81 38.22 34.15 32.09
50.75 50.79 51.86 51.23 51.78 52.26 52.41 51.99 51.18 50.88 49.94 49.19 43.82 43.38 50.32 52.74 48.74 42.62 36.06 38.15 43.84 47.23 47.71 44.39 42.02 41.79 42.18 42.89 42.18 40.60 42.66 48.21 49.77 49.49 51.63 46.53 43.98 47.56 49.87 46.87 45.03 45.85 43.13 41.55 41.01 38.93 35.06
50.37 50.85 50.83 50.81 51.51 52.12 52.12 51.35 50.66 50.03 48.94 45.15 40.69 39.58 49.87 51.80 40.93 37.90 37.61 43.67 46.04 45.68 47.53 46.17 45.68 44.08 43.03 43.73 41.38 42.05 43.65 47.37 51.40 51.18 47.23 48.70 43.49 41.46 45.38 50.23 51.97 48.77 46.15 42.52 38.09 36.96 39.84
50.51 51.15 50.30 50.60 51.87 51.99 51.45 50.78 50.15 49.48 48.71 43.01 37.02 41.16 50.76 47.99 36.26 35.66 39.60 44.05 45.39 45.07 45.01 45.11 44.53 46.33 45.36 42.00 38.93 43.83 46.61 51.23 51.41 52.47 46.96 47.71 41.74 38.49 41.98 44.66 48.42 46.16 46.45 44.21 41.90 40.52 38.62
50.57 50.45 50.36 50.75 50.68 51.28 50.98 50.52 50.15 49.50 48.90 42.19 39.39 39.80 44.02 45.38 42.70 40.15 39.24 41.96 43.55 49.22 47.20 47.06 45.44 45.04 43.17 41.10 41.10 41.64 44.04 49.12 51.02 51.73 59.94 53.46 41.84 41.84 39.72 42.09 46.93 47.24 49.78 48.30 43.86 38.84 39.39
50.11 50.25 50.08 50.04 49.92 49.98 50.64 50.47 50.21 49.31 48.98 43.65 41.72 40.88 41.69 37.70 40.80 41.97 41.54 44.83 43.64 43.27 47.05 47.51 45.55 44.76 43.09 37.09 40.07 40.46 43.40 46.12 49.52 55.38 50.81 48.25 42.60 44.69 46.34 50.23 51.29 50.69 50.14 51.01 45.14 44.86 42.76
49.59 50.34 49.94 49.55 49.27 49.23 50.13 50.26 50.06 49.08 48.38 44.64 39.79 39.47 40.97 38.99 41.40 40.27 40.60 41.53 45.00 46.60 45.38 44.41 43.10 46.83 45.00 40.21 42.27 41.25 42.44 41.00 45.69 51.33 48.19 47.37 42.21 47.61 45.35 50.83 51.74 50.69 52.11 52.80 53.05 52.97 46.95
48.62 49.47 49.32 49.18 48.75 48.69 48.95 49.68 49.60 48.91 45.73 39.49 42.38 42.32 40.27 39.54 37.34 37.05 38.84 44.22 45.91 48.00 49.36 50.98 50.09 45.56 44.47 44.77 46.06 48.79 47.80 46.50 46.81 48.61 48.60 48.98 44.03 42.82 40.68 48.22 49.09 44.60 49.30 52.19 52.56 53.52 51.23
47.67 48.06 48.46 48.37 48.25 48.34 48.45 48.86 48.51 48.69 46.85 39.21 40.08 40.52 37.88 36.78 38.57 39.76 43.33 46.62 45.93 47.63 46.16 51.13 51.12 46.16 50.78 52.66 51.66 50.19 47.14 47.54 48.44 47.25 49.64 48.99 47.51 43.73 40.81 42.97 36.87 47.64 53.07 53.83 53.49 57.76 55.44
47.50 47.47 47.73 47.80 47.62 48.01 48.49 48.50 48.08 48.48 48.57 39.50 39.78 40.20 37.64 34.10 39.58 41.61 42.44 43.94 45.10 46.09 46.88 49.47 52.23 52.70 53.43 48.14 43.78 41.79 42.07 42.92 45.48 48.27 46.74 50.22 48.14 44.79 41.46 39.86 45.19 50.04 52.68 52.21 51.41 54.39 56.91
46.92 47.10 47.54 47.74 48.35 48.69 48.03 48.04 47.84 48.12 48.20 40.56 39.39 42.99 39.18 35.03 36.54 42.13 41.06 42.55 39.02 39.32 43.36 48.76 53.05 52.82 49.37 44.10 41.82 36.56 37.62 40.66 40.91 43.56 46.50 47.36 49.10 46.04 42.87 39.54 38.59 47.15 54.02 57.34 55.02 48.43 58.53
46.67 46.94 47.90 48.14 47.80 47.69 47.55 47.62 47.83 47.90 47.66 41.54 39.09 42.07 38.72 34.31 38.44 38.83 39.02 37.76 41.63 40.46 41.49 45.82 46.58 48.92 48.37 40.67 38.73 37.31 38.17 44.28 39.77 39.29 40.69 40.22 42.22 41.98 42.60 41.38 45.23 56.51 60.38 58.71 43.87 45.28 58.44
46.84 46.89 46.72 46.76 47.06 47.23 46.98 47.02 47.38 47.29 47.11 42.12 38.58 40.48 38.53 33.80 35.81 40.21 42.71 40.42 40.76 40.82 39.85 42.99 45.42 45.77 46.94 42.02 38.69 38.61 38.78 40.72 39.95 43.96 43.03 40.29 38.38 39.71 41.92 39.80 39.55 58.28 59.58 52.91 54.93 59.58 59.35
46.36 46.33 46.85 46.53 46.57 46.56 46.76 46.86 46.64 46.62 46.62 45.28 36.14 41.25 41.26 35.62 35.22 40.18 42.30 44.06 43.57 44.02 40.15 42.26 44.67 44.20 49.50 43.49 44.06 43.08 43.73 43.75 42.95 41.54 48.70 43.52 46.28 44.99 44.52 44.00 55.60 57.27 58.70 59.75 61.89 59.23 59.34

GFSGBSN_sfc_wetblb_009.txt.gz
Wetbulb
55.37 55.44 55.19 55.47 55.69 55.48 56.04 56.22 56.46 56.49 56.67 56.86 56.74 56.82 56.98 57.09 57.42 57.56 57.65 57.65 57.48 57.46 57.34 58.06 58.85 58.90 55.41 52.67 55.48 67.39 72.85 71.72 61.47 55.76 52.91 53.31 54.03 52.48 48.53 48.59 50.21 48.72 51.01 53.93 55.53 57.63 59.29
55.09 54.80 55.37 55.29 55.02 55.61 55.93 56.13 56.34 56.25 56.35 56.30 56.20 56.28 56.28 56.55 56.69 56.82 56.98 57.14 57.31 56.87 57.15 58.09 58.86 58.11 55.51 49.10 63.96 65.75 62.01 56.46 54.88 53.31 53.43 55.19 55.59 54.46 50.86 50.09 49.46 51.70 52.92 55.04 55.00 57.88 59.67
54.77 54.73 54.96 54.70 54.58 55.22 55.65 55.81 55.95 55.95 56.00 55.85 55.85 55.85 55.96 55.93 56.13 56.32 56.80 56.75 56.55 56.59 56.90 57.69 58.56 57.83 55.27 49.18 63.36 61.29 56.58 54.11 53.39 53.94 54.61 56.76 57.50 52.40 51.44 50.35 54.22 54.60 52.02 53.45 54.76 56.20 55.97
54.56 54.45 54.49 54.24 54.27 54.83 55.13 55.23 55.39 55.43 55.44 55.46 55.24 55.40 55.44 55.61 55.77 55.88 56.03 56.03 55.92 57.04 56.80 57.56 57.96 55.81 51.39 59.32 60.78 57.22 52.50 51.92 53.39 51.08 54.94 58.03 57.97 53.68 50.61 54.31 53.83 51.15 49.53 47.22 53.52 55.88 57.11
54.47 54.40 54.01 53.94 54.23 54.61 54.53 54.62 54.80 54.98 54.93 54.87 54.91 55.05 55.37 55.43 55.60 55.54 54.84 55.03 57.90 57.47 57.59 58.38 55.25 54.80 52.63 61.54 55.77 56.03 54.28 55.07 54.24 52.39 53.30 59.79 55.08 50.88 53.14 48.82 45.61 45.84 42.98 46.50 51.30 55.96 56.03
53.66 53.34 53.82 53.93 54.13 54.11 54.16 54.16 54.34 54.32 54.48 54.58 54.80 54.84 55.00 54.88 54.90 54.58 54.12 54.85 57.88 57.55 57.93 59.59 60.02 50.49 51.56 57.37 57.43 55.88 54.93 58.42 56.13 54.55 53.59 52.84 49.96 47.21 46.62 45.00 38.47 43.06 45.90 47.46 48.01 53.06 53.71
53.19 53.70 53.23 53.56 53.56 53.75 53.75 53.74 53.91 53.97 53.91 54.09 54.53 54.51 54.31 54.25 54.15 54.00 51.60 48.39 47.71 47.74 53.74 49.67 48.41 50.66 54.52 59.02 59.57 56.18 57.62 57.57 56.34 51.43 45.70 48.53 45.15 42.15 45.82 47.50 48.82 48.68 46.90 46.40 49.96 52.80 52.55
53.57 52.85 53.17 53.29 53.30 53.48 53.25 53.29 53.47 53.54 53.33 53.31 53.72 53.94 53.76 53.47 53.20 53.24 49.59 49.94 48.18 48.34 44.23 50.70 53.13 54.72 56.88 57.07 52.01 55.42 57.93 53.42 51.95 47.52 48.41 45.53 41.91 47.27 49.94 49.63 49.07 47.87 45.43 44.29 47.70 52.19 52.41
53.33 53.10 52.95 52.80 53.00 53.18 53.18 53.22 53.24 53.18 52.93 53.04 53.16 53.28 53.10 52.65 52.44 49.84 47.49 49.37 52.04 49.42 43.44 47.59 50.31 49.89 50.03 52.92 51.12 52.25 55.34 53.00 50.57 47.97 47.27 43.96 46.94 51.07 49.80 48.16 46.82 44.35 42.30 42.82 43.97 47.08 50.77
53.24 53.56 53.34 52.72 52.83 52.69 52.97 53.06 52.77 52.77 52.79 52.71 52.81 52.67 52.28 51.30 47.56 46.37 49.20 51.90 49.39 48.95 38.33 43.74 46.94 49.99 50.56 52.18 49.48 56.84 55.61 53.94 50.85 48.40 48.80 47.14 50.82 50.60 49.16 47.79 47.01 40.98 47.26 46.47 45.52 43.70 39.79
52.83 52.62 52.80 52.94 52.46 52.62 52.91 52.95 53.10 52.73 52.52 52.44 52.31 52.30 51.78 51.23 44.51 46.05 51.75 49.42 49.12 48.41 31.79 47.52 47.51 52.81 48.64 50.15 51.21 54.43 56.17 52.55 48.97 48.71 47.93 46.46 49.18 48.70 48.41 49.15 48.58 46.32 48.84 46.27 46.68 42.83 40.35
52.43 52.53 52.51 52.79 52.56 52.79 52.89 53.20 52.87 52.33 52.00 51.94 51.84 51.65 51.01 47.37 44.57 47.60 49.89 47.20 47.78 37.75 32.63 45.27 48.65 46.93 46.44 47.11 49.37 52.73 53.02 53.54 52.79 48.91 48.31 48.11 52.08 50.57 49.95 52.10 51.28 51.63 46.74 44.01 42.27 39.39 35.87
51.74 52.05 52.02 52.41 51.89 51.96 52.87 52.92 52.46 52.04 51.60 51.38 51.15 50.45 48.95 48.70 41.73 46.37 46.68 45.59 36.62 32.76 44.29 44.10 43.12 44.04 42.85 44.52 46.56 49.28 49.43 47.47 45.51 40.31 40.43 46.23 47.83 50.20 52.80 48.79 49.42 45.41 39.96 35.09 34.88 34.00 34.50
51.59 52.00 52.10 51.56 51.51 51.92 52.46 52.73 52.09 51.61 51.27 50.80 49.94 50.27 49.10 48.63 45.99 46.58 45.32 40.90 30.35 39.32 40.71 45.98 45.04 43.72 42.83 44.23 44.82 46.75 46.99 45.26 47.43 45.57 42.05 41.07 40.64 48.15 51.79 48.92 46.96 43.29 41.16 36.22 31.35 32.25 35.96
51.27 51.43 52.37 51.60 51.73 52.30 52.59 52.36 51.57 51.19 50.65 49.99 49.29 43.28 43.76 47.01 48.77 45.61 42.27 32.57 33.73 38.96 45.40 44.28 43.71 41.29 41.16 44.23 44.86 44.64 45.30 44.96 47.22 47.63 43.43 40.08 42.22 51.49 51.56 50.76 49.30 44.45 40.64 42.16 36.72 34.43 35.83
50.76 51.01 51.33 51.03 51.65 52.18 52.40 51.96 51.27 50.96 50.35 49.40 42.85 42.55 43.95 49.04 48.82 45.01 39.46 35.10 37.61 44.45 45.16 43.70 39.29 41.64 38.66 41.62 41.01 41.00 42.30 46.59 47.66 50.12 47.80 44.08 40.70 46.27 50.46 51.02 50.15 46.64 46.72 40.30 36.90 33.37 31.25
50.46 51.62 50.74 50.59 51.90 52.11 51.76 51.17 50.80 50.53 49.68 48.53 43.06 42.14 47.69 48.68 46.47 42.32 35.69 36.16 41.64 45.53 46.24 42.93 40.67 40.28 40.59 41.11 40.54 39.03 40.93 46.12 49.34 49.14 49.68 44.25 41.80 45.60 47.95 45.58 44.93 43.97 41.48 39.41 39.11 36.91 34.24
50.56 50.84 50.61 51.16 50.91 51.08 51.06 50.77 50.34 49.51 48.49 43.74 37.91 40.29 48.13 46.49 37.95 35.80 36.42 41.15 44.44 43.20 44.12 43.44 43.56 42.96 41.03 41.84 39.77 40.13 41.36 45.24 49.16 48.67 46.22 45.90 41.30 40.43 43.14 48.37 50.12 45.73 43.95 41.16 38.18 36.19 36.59
50.40 50.90 50.25 50.57 50.29 50.55 50.55 50.37 49.98 48.78 48.31 43.76 35.64 38.49 48.46 46.29 34.46 33.93 38.30 42.39 43.22 42.05 42.62 42.17 42.67 44.73 43.95 40.54 37.94 41.38 44.40 48.81 48.06 46.77 44.15 45.11 39.98 37.95 40.09 43.00 45.87 44.60 44.45 41.37 39.72 37.67 36.97
50.37 50.63 50.33 50.04 49.63 50.01 50.21 50.34 49.84 48.87 48.86 41.24 39.17 39.31 42.27 43.13 39.46 38.87 38.90 42.28 43.18 48.59 45.55 45.61 44.25 44.30 42.62 39.96 39.98 40.03 42.36 46.53 47.69 48.47 59.35 51.19 39.21 40.08 39.94 41.10 44.88 45.72 48.16 45.50 41.42 37.82 37.48
49.18 49.54 50.06 49.52 49.02 49.05 49.80 50.17 49.79 49.04 48.84 42.93 40.85 38.36 39.78 36.48 39.16 38.98 39.53 43.27 44.15 43.93 46.29 44.96 43.34 43.54 41.57 36.70 38.62 39.49 42.02 43.59 47.51 53.30 50.18 45.58 41.21 41.53 42.42 45.61 49.23 49.12 49.42 48.28 44.20 42.46 41.23
48.51 48.59 49.27 48.83 48.44 48.68 49.33 49.93 49.53 48.74 47.73 41.81 38.79 38.10 38.93 37.33 38.61 37.19 38.61 39.03 42.58 45.10 43.98 43.10 43.70 47.97 45.15 38.56 40.47 40.28 40.65 39.27 42.42 47.83 47.66 47.35 40.55 45.33 42.76 49.18 49.91 48.52 50.12 51.13 50.23 49.58 45.94
48.22 48.27 48.29 47.63 48.11 48.15 48.35 49.39 48.97 48.38 44.40 38.58 39.60 39.94 39.35 38.21 36.47 36.09 36.67 42.07 44.40 45.90 47.67 49.08 48.75 46.00 43.89 45.74 47.60 45.95 43.97 46.02 46.04 45.70 45.73 47.56 41.83 40.60 38.37 46.12 46.58 41.83 47.83 50.04 50.28 52.21 50.78
47.87 47.46 47.92 47.72 47.39 48.09 48.16 47.97 47.85 48.30 45.25 37.37 38.08 38.32 36.89 33.98 37.26 38.31 42.03 43.38 43.71 45.49 44.30 49.07 49.44 45.76 49.22 53.16 50.47 46.50 45.31 44.23 45.49 45.50 47.70 46.92 44.16 40.93 39.34 40.75 35.02 44.37 50.78 52.52 53.74 56.30 54.63
47.21 47.05 47.66 48.16 49.02 48.61 47.91 48.07 47.90 48.59 48.26 38.60 37.82 38.60 36.21 32.83 37.77 39.14 40.27 40.76 41.67 42.74 44.07 47.76 50.83 51.46 50.92 46.78 43.07 40.19 40.40 39.94 43.84 46.61 45.18 47.72 45.60 42.78 39.76 37.88 42.62 47.83 50.42 50.67 48.69 51.90 53.55
47.19 46.95 47.86 48.22 47.99 47.76 47.61 47.96 47.96 48.10 47.85 38.77 37.80 39.78 37.75 34.02 33.82 40.43 38.55 40.75 36.83 36.97 41.17 46.68 50.90 49.75 48.36 41.54 40.69 34.84 35.43 38.38 39.40 41.74 43.47 46.79 46.59 44.67 41.39 38.51 37.34 44.59 55.02 59.93 55.23 46.01 54.64
47.15 47.14 47.07 46.96 47.25 47.13 47.24 47.23 47.14 47.19 47.33 39.84 37.56 38.43 36.91 32.97 36.15 36.85 36.80 36.28 39.44 38.49 39.30 42.53 43.88 47.01 48.37 38.69 37.33 36.05 37.00 41.87 39.13 38.33 37.82 38.54 39.57 39.00 41.27 40.09 43.97 54.35 57.78 58.94 43.45 44.36 55.42
46.87 46.48 46.70 47.36 46.72 46.59 46.57 46.83 46.72 46.70 46.81 40.94 37.51 38.38 36.36 31.96 33.80 38.12 40.94 37.63 38.87 39.04 37.67 40.24 43.14 43.94 45.79 41.37 38.28 36.34 36.47 38.65 38.56 44.05 41.54 38.89 37.53 37.87 39.92 39.07 39.25 56.94 56.67 49.55 52.64 57.89 56.54
46.25 46.17 46.96 47.00 46.26 46.34 46.39 46.39 46.38 46.34 46.27 43.66 35.20 39.30 39.21 34.12 33.50 37.68 40.47 42.23 42.37 41.66 38.32 37.48 41.83 42.52 46.61 40.67 41.01 41.28 41.81 42.32 41.01 39.95 46.81 42.13 44.76 41.93 41.90 43.48 53.95 57.63 58.85 58.47 59.29 57.98 56.69

GFSGBSN_sfc_wetblb_012.txt.gz
Wetbulb
55.07 55.47 55.21 54.98 55.25 55.86 56.33 56.36 56.36 56.53 56.47 56.55 56.52 56.62 56.71 56.70 56.95 57.10 57.26 57.28 57.18 57.11 57.34 57.49 58.67 58.99 54.16 50.58 53.48 67.49 72.21 72.17 63.05 55.68 51.44 52.83 51.95 51.27 47.29 47.67 49.70 47.77 49.68 52.14 53.97 54.05 56.61
54.83 55.04 54.70 54.65 54.97 55.54 55.68 55.98 56.20 56.17 56.18 56.07 56.09 56.07 56.15 56.22 56.45 56.81 56.79 57.02 57.03 56.57 57.10 57.25 58.49 58.42 54.06 44.64 62.92 67.46 63.25 56.25 54.88 51.60 51.27 55.23 54.59 53.79 49.73 49.07 48.28 50.55 51.79 52.78 54.26 55.04 58.18
54.75 54.74 54.20 54.64 54.85 55.23 55.26 55.53 55.65 55.74 55.75 55.77 55.60 55.53 55.58 55.87 55.99 56.27 56.58 56.25 56.15 56.35 56.96 57.22 58.40 57.47 52.41 46.96 62.51 60.03 55.00 53.11 52.90 51.54 52.21 54.83 56.49 51.69 50.23 48.85 52.45 53.42 50.86 52.52 53.44 54.85 54.53
54.07 53.85 54.12 54.12 54.77 54.81 54.97 55.20 55.36 55.24 55.28 55.12 55.04 55.00 55.30 55.24 55.56 55.64 55.80 55.26 55.67 58.75 57.01 57.45 58.11 54.72 47.49 57.87 60.82 57.73 52.75 50.45 51.79 50.59 53.44 56.36 56.67 52.71 48.94 52.52 52.08 48.70 47.89 46.20 52.01 55.08 55.62
53.93 53.72 53.80 54.16 54.35 54.43 54.37 54.49 54.65 54.53 54.51 54.38 54.42 54.48 54.64 54.95 55.25 55.19 54.87 54.64 57.15 57.59 57.96 58.42 53.44 52.93 46.86 59.77 55.07 55.12 52.78 52.11 51.81 50.36 51.51 57.43 53.75 49.38 51.83 46.93 43.42 44.65 41.84 44.73 49.83 54.33 54.35
54.01 53.34 53.73 54.05 54.14 54.17 53.91 54.06 54.01 53.99 53.99 54.30 54.09 54.27 54.43 54.49 54.55 54.33 54.00 54.47 58.12 57.49 57.68 59.21 59.27 46.71 49.34 55.59 55.94 54.51 52.67 55.51 54.23 52.71 52.51 51.53 48.80 45.98 45.52 43.91 36.17 40.24 43.02 44.74 46.19 50.38 52.14
53.21 53.35 53.55 53.69 53.84 53.75 53.81 53.70 53.72 53.72 53.49 53.78 53.92 53.98 53.96 54.00 53.86 53.67 51.49 47.50 46.38 46.67 48.97 46.76 47.66 47.86 52.51 57.08 58.20 53.72 55.29 55.67 53.91 50.50 44.71 47.06 43.94 41.02 44.35 46.60 47.22 46.82 45.15 44.35 47.24 50.32 49.83
54.04 53.61 53.27 53.41 53.55 53.29 53.43 53.50 53.31 53.23 53.08 53.12 53.01 53.63 53.65 53.39 53.14 53.37 48.03 47.49 46.97 47.21 42.63 48.52 49.99 53.12 55.47 55.37 51.06 54.42 57.72 52.66 51.40 46.64 46.99 44.63 40.92 45.81 48.03 47.99 47.22 46.07 43.91 43.45 46.05 48.63 50.18
53.23 53.14 52.87 53.09 52.90 53.10 53.18 52.98 52.85 52.58 52.39 52.43 52.68 53.12 53.02 52.53 52.53 48.99 45.98 47.79 49.60 45.86 41.21 45.97 48.99 48.82 49.71 52.11 49.93 51.90 55.30 52.60 49.36 46.80 45.66 43.15 45.33 49.26 48.81 46.76 45.38 42.85 41.54 42.17 43.04 45.50 48.40
52.66 52.37 52.55 52.78 53.00 53.02 53.04 52.83 52.62 52.39 52.23 52.37 52.48 52.57 52.18 51.27 46.31 46.27 48.62 50.94 47.33 47.28 36.73 41.72 45.12 48.61 49.02 50.25 48.54 55.47 55.55 53.02 49.70 47.24 46.80 46.01 49.19 49.11 47.46 46.65 46.13 39.88 46.39 45.99 44.39 42.22 38.13
51.65 52.10 51.88 52.26 52.29 52.23 52.18 52.68 52.48 52.21 52.39 52.38 52.31 52.01 51.62 51.17 44.90 42.96 49.31 48.00 47.31 46.78 31.50 45.88 45.65 50.65 47.49 49.21 50.85 51.36 54.95 52.27 48.06 47.93 47.01 44.69 47.25 46.96 47.57 48.12 47.67 46.31 47.84 45.29 45.27 41.14 39.51
51.52 52.48 52.21 51.76 51.83 51.83 52.14 52.79 52.73 52.17 51.85 51.73 51.70 50.91 50.69 46.35 42.77 46.38 48.17 47.19 46.44 36.14 31.64 43.61 46.77 44.74 44.94 45.59 47.89 51.95 51.47 52.84 52.09 48.08 47.22 46.94 50.55 48.96 48.60 50.66 50.23 51.18 45.22 42.55 40.26 38.02 35.10
51.57 52.04 52.42 51.96 51.43 51.79 52.33 52.71 52.15 51.71 51.54 51.38 50.85 50.38 48.62 48.27 41.48 46.17 45.84 44.76 35.89 31.46 42.41 42.52 41.35 42.81 41.56 42.40 44.96 49.42 48.12 46.57 45.05 40.24 39.01 44.71 46.20 48.64 50.66 46.64 47.82 44.94 39.84 34.42 34.43 33.37 33.58
50.93 51.20 51.68 51.07 51.24 51.96 52.28 52.17 51.63 51.36 51.07 50.62 49.67 49.68 48.06 47.91 45.86 45.46 43.81 40.24 29.46 37.50 38.68 44.33 43.04 41.84 40.65 42.74 43.56 46.78 46.48 44.52 46.25 44.04 40.64 39.38 39.16 46.46 49.88 47.30 45.12 42.25 41.03 35.66 30.90 31.21 35.52
50.88 51.81 51.12 50.97 51.77 51.96 51.78 51.53 51.28 50.93 50.47 49.79 48.79 41.72 42.10 45.13 48.62 44.53 41.42 31.95 32.79 37.01 44.01 42.58 42.02 39.74 39.62 42.47 43.34 43.29 44.11 44.50 46.80 46.69 41.84 38.98 41.21 49.48 50.32 48.85 48.61 42.95 39.43 41.17 35.60 34.52 34.80
50.80 51.43 50.92 51.45 51.42 51.42 51.38 51.11 51.03 50.78 50.03 49.26 41.76 41.76 43.32 47.45 47.01 43.44 38.08 33.74 35.03 42.31 43.50 42.11 38.00 39.91 37.24 40.44 39.62 39.67 41.67 44.70 45.83 48.42 46.14 42.88 39.15 45.01 49.55 48.86 48.31 45.56 46.07 39.20 36.02 31.79 30.53
50.80 51.33 50.63 51.26 51.02 51.10 50.83 50.71 50.61 50.21 49.34 48.62 40.87 41.44 46.06 46.64 43.88 41.41 33.75 33.98 39.91 44.45 43.69 40.71 38.91 38.63 38.98 39.45 39.01 37.57 39.41 44.57 47.67 47.18 47.74 43.17 41.14 41.95 45.94 43.87 43.71 42.37 40.12 38.86 37.80 36.15 33.41
50.50 50.84 50.54 50.42 50.40 50.44 50.39 50.37 50.06 49.00 48.39 43.92 37.33 39.46 46.94 44.89 37.94 33.81 35.06 38.67 43.68 41.62 42.18 41.08 41.85 41.11 40.39 40.57 37.98 38.79 39.71 43.31 46.85 46.05 44.22 43.84 39.28 37.65 42.01 46.31 48.34 44.91 43.00 40.50 37.51 35.34 35.39
49.93 50.07 50.72 49.99 49.15 49.99 50.13 50.05 49.50 48.47 48.32 41.82 37.70 39.09 47.10 44.98 32.31 32.85 36.82 40.26 42.06 41.35 41.63 40.74 40.85 42.92 41.99 39.68 37.92 40.16 42.70 46.68 46.62 44.59 43.13 44.58 38.96 35.48 38.63 40.84 44.70 44.38 43.10 40.57 38.40 37.52 37.21
49.22 49.28 49.89 49.48 48.94 49.11 49.85 50.13 49.41 48.71 48.52 41.34 39.97 38.69 41.61 41.60 38.38 38.08 39.01 40.83 42.00 47.30 44.00 44.35 42.39 42.31 40.16 38.02 39.24 39.91 41.12 45.48 46.92 46.38 59.16 49.54 37.49 38.42 36.02 39.15 42.84 44.53 46.34 43.71 40.71 37.03 36.47
48.63 48.52 48.46 48.29 47.94 48.46 49.05 49.48 49.45 48.86 48.31 42.07 40.17 37.37 38.27 35.56 37.78 37.79 38.91 41.87 42.13 42.27 46.28 44.37 42.44 43.49 42.33 35.85 36.86 38.94 41.03 42.69 46.42 52.23 47.19 44.33 40.33 38.41 40.25 43.10 46.78 47.75 47.79 45.34 43.38 42.80 42.70
48.46 47.82 47.69 48.05 47.85 48.11 48.33 48.40 49.35 48.56 47.02 40.40 38.08 37.43 37.43 35.95 36.89 35.03 38.34 38.30 42.24 43.92 43.37 42.43 43.75 46.94 44.86 38.11 38.33 39.26 40.84 38.43 41.50 45.53 45.34 45.35 39.54 42.97 41.59 47.74 48.60 48.01 49.55 48.57 48.74 46.45 44.88
48.40 47.72 47.58 48.01 47.93 48.87 48.14 48.03 48.77 48.19 43.63 37.52 37.94 38.14 38.05 36.09 35.70 34.80 36.05 40.03 43.07 43.96 45.68 47.43 47.00 45.31 43.60 43.54 48.78 49.51 46.50 43.39 41.31 43.88 44.13 45.50 41.59 39.21 37.51 44.87 45.23 40.60 47.26 48.88 49.76 50.10 49.19
47.53 47.33 47.62 48.73 48.92 48.37 48.09 47.98 47.94 48.19 44.18 36.36 36.35 36.56 36.14 31.42 36.12 37.28 40.70 41.73 42.85 42.58 41.91 46.50 47.36 44.66 48.13 50.89 48.82 46.92 43.70 43.01 42.83 44.25 45.49 45.35 41.83 39.06 37.80 39.64 34.25 43.11 49.44 51.18 52.02 54.97 54.36
47.48 47.52 47.54 48.08 47.72 47.61 47.50 47.74 47.85 48.05 47.55 37.71 36.39 36.99 35.37 31.48 36.47 37.46 38.73 39.01 40.82 40.70 41.92 45.66 48.62 49.40 48.45 45.66 41.12 39.14 38.48 39.01 43.34 44.66 43.58 45.00 44.48 41.55 38.58 36.71 41.94 47.40 51.07 52.72 48.74 49.31 54.57
47.60 47.61 47.23 47.05 47.77 47.20 47.32 47.27 47.39 47.10 47.55 38.32 36.45 37.18 36.43 32.88 31.83 38.94 36.67 38.26 36.00 35.84 39.92 44.00 48.28 47.15 47.89 39.70 39.28 34.44 34.12 36.46 37.71 39.89 44.38 45.28 44.66 44.10 40.45 37.31 36.74 44.40 54.32 58.83 56.62 45.43 54.70
46.97 47.01 46.54 47.20 47.63 46.89 46.79 46.88 47.01 46.88 47.03 38.86 36.50 35.93 35.90 31.73 34.27 36.12 35.00 35.86 37.59 36.63 36.91 39.96 41.97 45.01 45.88 37.21 35.95 35.24 35.95 40.27 37.31 36.47 36.51 37.12 38.64 38.65 40.83 40.06 43.76 50.89 56.81 57.74 44.28 45.63 56.37
46.55 46.48 46.61 47.12 46.78 46.30 46.92 46.63 46.67 46.68 46.70 39.82 36.53 36.59 35.00 30.75 32.25 36.85 39.05 36.18 36.82 37.25 36.02 38.47 40.79 42.18 42.56 40.12 38.01 35.59 35.14 37.59 38.89 42.79 40.36 37.91 36.84 36.82 39.08 38.13 38.12 56.14 55.58 48.67 50.82 56.21 56.83
46.56 46.41 46.62 47.03 46.90 47.71 47.46 47.26 46.99 46.97 46.21 42.37 34.20 38.07 37.56 33.48 32.76 35.89 38.51 40.15 40.15 40.03 37.44 35.15 39.98 40.76 44.61 39.85 39.62 39.80 40.12 41.00 40.06 39.16 45.36 41.31 42.73 38.99 40.59 41.56 51.76 57.94 57.80 59.03 58.64 57.08 57.35